Location: Bergheim
(50.9593°N, 6.6400°E)
Time: 11:15:11
(UTC+02:00)

ISS - Pass Details

Date: 21 May 2021
Orbit: 417 x 422 km, 51.6° (Epoch: 13 June)

Event Time Altitude Azimuth Distance (km) Brightness Sun altitude
Rises 23:43:26 0° 279° (W) 2,367 0.6 -14.9°
Reaches altitude 10° 23:45:31 10° 280° (W) 1,503 -0.5 -15.1°
Maximum altitude 23:48:54 85° 7° (N) 427 -3.8 -15.3°
Enters shadow 23:51:19 18° 97° (E) 1,115 -1.9 -15.4°
